Lalas, Greece

7:41 AM EET on January 20, 2018 (GMT +0200)
Lalas

Weather History for WLGAV - May, 2013

Change the Weather History Date:

Sunday, May 26, 2013

  Actual Average Record
Temperature  
Mean Temperature 72 °F -  
Max Temperature 84 °F - - ()
Min Temperature 60 °F - - ()
Cooling Degree Days 7    
Growing Degree Days 22 (Base 50)    
Moisture  
Dew Point 47 °F    
Average Humidity 40    
Maximum Humidity 63    
Minimum Humidity 21    
Precipitation  
Precipitation 0.00 in - - ()
Sea Level Pressure  
Sea Level Pressure 29.92 in    
Wind  
Wind Speed 7 mph ()    
Max Wind Speed 18 mph    
Max Gust Speed -    
Visibility 6.2 miles    
Events      
T = Trace of Precipitation, MM = Missing Value Source: Averaged Metar Reports

Daily Weather History Graph

Daily Weather History Graph

Search for Another Location

Airport or City:

Trip Planner

Search our weather history database for the weather conditions in past years. The results will help you decide how hot, cold, wet, or windy it might be!

Date:

Astronomy

May. 26, 2013 Rise Set
Actual Time 6:04 AM EEST 8:35 PM EEST
Civil Twilight 5:33 AM EEST 9:05 PM EEST
Nautical Twilight 4:55 AM EEST 9:43 PM EEST
Astronomical Twilight 4:14 AM EEST 10:25 PM EEST
Moon 10:04 PM EEST (5/26) 7:12 AM EEST (5/26)
Length of Visible Light 15h 31m
Length of Day
14h 30m
Full, 98% of the Moon is Illuminated
May 26
Full
May 31
Last Quarter
Jun 8
New
Jun 16
First Quarter
Jun 23
Full

Hourly Weather History & Observations

Time (EEST) Temp. Dew Point Humidity Pressure Visibility Wind Dir Wind Speed Gust Speed Precip Events Conditions
12:20 AM 68.0 °F 51.8 °F 56% 29.98 in - Variable 3.5 mph - N/A   Clear
12:50 AM 69.8 °F 50.0 °F 49% 29.98 in - WSW 6.9 mph - N/A   Clear
1:20 AM 68.0 °F 50.0 °F 52% 29.98 in - West 4.6 mph - N/A   Clear
1:50 AM 68.0 °F 48.2 °F 49% 29.95 in - WSW 5.8 mph - N/A   Clear
2:20 AM 66.2 °F 48.2 °F 52% 29.95 in - WSW 4.6 mph - N/A   Clear
2:50 AM 66.2 °F 48.2 °F 52% 29.95 in - SSW 4.6 mph - N/A   Clear
3:20 AM 64.4 °F 48.2 °F 56% 29.95 in - SW 5.8 mph - N/A   Clear
3:50 AM 64.4 °F 48.2 °F 56% 29.95 in - Variable 1.2 mph - N/A   Clear
4:20 AM 62.6 °F 48.2 °F 59% 29.92 in - Variable 2.3 mph - N/A   Clear
4:50 AM 60.8 °F 48.2 °F 63% 29.92 in - Variable 1.2 mph - N/A   Clear
5:20 AM 62.6 °F 48.2 °F 59% 29.92 in - Variable 2.3 mph - N/A   Clear
5:50 AM 62.6 °F 48.2 °F 59% 29.95 in - SE 3.5 mph - N/A   Clear
6:20 AM 60.8 °F 48.2 °F 63% 29.95 in - East 4.6 mph - N/A   Clear
6:50 AM 62.6 °F 50.0 °F 63% 29.95 in - ESE 2.3 mph - N/A   Clear
7:20 AM 66.2 °F 51.8 °F 60% 29.95 in - Variable 1.2 mph - N/A   Clear
7:50 AM 68.0 °F 51.8 °F 56% 29.95 in - North 2.3 mph - N/A   Clear
8:20 AM 69.8 °F 51.8 °F 53% 29.95 in - Variable 1.2 mph - N/A   Clear
8:50 AM 75.2 °F 48.2 °F 38% 29.95 in - Variable 2.3 mph - N/A   Clear
9:20 AM 75.2 °F 46.4 °F 36% 29.92 in - SW 10.4 mph - N/A   Clear
9:50 AM 77.0 °F 41.0 °F 28% 29.92 in - SW 11.5 mph - N/A   Clear
10:20 AM 78.8 °F 41.0 °F 26% 29.92 in - SSW 12.7 mph - N/A   Clear
10:50 AM 78.8 °F 41.0 °F 26% 29.95 in - SSW 13.8 mph - N/A   Clear
11:20 AM 78.8 °F 41.0 °F 26% 29.95 in - SSW 13.8 mph - N/A   Clear
11:50 AM 80.6 °F 41.0 °F 24% 29.92 in - SW 15.0 mph - N/A   Clear
12:20 PM 80.6 °F 42.8 °F 26% 29.95 in - South 17.3 mph - N/A   Clear
12:50 PM 82.4 °F 42.8 °F 25% 29.92 in - SSW 16.1 mph - N/A   Clear
1:20 PM 82.4 °F 41.0 °F 23% 29.92 in - South 17.3 mph - N/A   Clear
1:50 PM 82.4 °F 39.2 °F 21% 29.92 in - SSW 17.3 mph - N/A   Clear
2:20 PM 82.4 °F 41.0 °F 23% 29.92 in - SSW 15.0 mph - N/A   Clear
2:50 PM 82.4 °F 41.0 °F 23% 29.92 in - SSW 16.1 mph - N/A   Clear
3:20 PM 84.2 °F 41.0 °F 22% 29.89 in 6.2 mi SSW 18.4 mph - N/A   Partly Cloudy
3:50 PM 84.2 °F 42.8 °F 23% 29.89 in 6.2 mi SSW 18.4 mph - N/A   Partly Cloudy
4:20 PM 84.2 °F 44.6 °F 25% 29.89 in 6.2 mi SW 17.3 mph - N/A   Partly Cloudy
4:50 PM 82.4 °F 46.4 °F 28% 29.89 in 6.2 mi SSW 16.1 mph - N/A   Partly Cloudy
5:20 PM 82.4 °F 46.4 °F 28% 29.89 in 6.2 mi SSW 16.1 mph - N/A   Partly Cloudy
5:50 PM 80.6 °F 46.4 °F 30% 29.86 in 6.2 mi South 15.0 mph - N/A   Partly Cloudy
6:20 PM 80.6 °F 48.2 °F 32% 29.86 in 6.2 mi South 12.7 mph - N/A   Partly Cloudy
6:50 PM 80.6 °F 50.0 °F 34% 29.86 in 6.2 mi South 11.5 mph - N/A   Partly Cloudy
7:20 PM 78.8 °F 51.8 °F 39% 29.86 in 6.2 mi South 9.2 mph - N/A   Partly Cloudy
7:50 PM 78.8 °F 48.2 °F 34% 29.86 in 6.2 mi WSW 6.9 mph - N/A   Partly Cloudy
8:20 PM 78.8 °F 48.2 °F 34% 29.89 in 6.2 mi WSW 10.4 mph - N/A   Partly Cloudy
8:50 PM 75.2 °F 50.0 °F 41% 29.89 in - WSW 6.9 mph - N/A   Clear
9:20 PM 73.4 °F 46.4 °F 38% 29.89 in - WSW 5.8 mph - N/A   Clear
9:50 PM 73.4 °F 46.4 °F 38% 29.89 in - SW 6.9 mph - N/A   Clear
10:20 PM 73.4 °F 46.4 °F 38% 29.89 in - SW 5.8 mph - N/A   Clear
10:50 PM 71.6 °F 48.2 °F 43% 29.92 in - SSW 6.9 mph - N/A   Clear
11:20 PM 71.6 °F 48.2 °F 43% 29.92 in - Variable 2.3 mph - N/A   Clear
11:50 PM 71.6 °F 46.4 °F 41% 29.92 in - SSW 9.2 mph - N/A   Clear